www.pogodaiklimat.ru

Погода и климат >> Архив погоды >> Нигер >> Zinder


ПОГОДА в Zinder

  • Прогноз погоды в Zinder
  • Монитор погоды в Zinder
  • Климат города

АРХИВ ПОГОДЫ в Zinder

Время (UTC), дата Ветер
(напр.,м/с)
 
Видим.   Явления Облачность Т
(С)
Тd
(С)
f
(%)
Тe
(С)
Тes
(С)
Комфортность P
(гПа)
Po
(гПа)
Тmin
(С)
Tmax
(С)
R
(мм)
R24
(мм)
S
(см)
06 19.05 З 10 15 км 9/0
[Ac As Ci sp]
+29.5 +18.8 53 +35 +35 очень
душно
1008.4 959.3 +29.4
09 19.05 З 14 15 км 9/0
[Ac As Ci sp]
+33.2 +19.7 45 +39 +39 очень
душно
1009.6 960.5
12 19.05 СЗ 12 15 км 9/0
[Ac trans Cs]
+37.0 +17.7 32 +40 +40 очень
душно
1007.9 959.0
15 19.05 З 2 15 км 9/0
[Cs]
+40.0 +15.0 23 +41 +48 опасность
перегрева
1005.0 956.5
18 19.05 СЗ 2 10 км 9/0
[Cs]
+38.0 +14.3 25 +39 +39 очень
душно
1005.1 956.3 +40.5
21 19.05 ЮЗ 2 10 км 9/0
[Cs]
+34.5 +16.0 33 +37 +37 очень
душно
1008.3 959.3
03 20.05 В 6 4000 м пыль 9/0
[Cs]
+30.5 +18.6 49 +35 +35 очень
душно
1007.7 959.0
06 20.05 З 8 10 км 9/0
[Cs]
+28.9 +20.4 60 +36 +36 очень
душно
1008.9 959.8 +28.2
09 20.05 СЗ 10 7000 м пыль 9/0
[Cs]
+33.5 +18.6 41 +38 +39 очень
душно
1010.4 961.3
12 20.05 С 6 10 км 9/0
[Cs]
+38.0 +14.7 25 +39 +46 очень
душно
1008.5 959.8
15 20.05 В 4 8000 м пыль 9/0
[Cs]
+39.7 +10.4 17 +38 +43 очень
жарко
1005.7 957.1
18 20.05 В 4 7000 м пыль 9/0
[Ac trans Cs]
+38.7 +7.8 15 +36 +36 очень
жарко
1006.4 957.5 +40.4
21 20.05 Ю 2 8000 м пыль 9/0
[Cs]
+34.6 +13.5 28 +35 +35 очень
жарко
1008.0 959.0
03 21.05 С 4 10 км 9/0
[Cs]
+30.0 +15.9 43 +33 +33 душно 1007.0 958.3
06 21.05 СЗ 6 10 км 9/0
[Cs]
+30.5 +14.5 38 +33 +33 душно 1008.5 959.6 +29.5
09 21.05 СЗ 10 10 км 9/0
[Cs]
+36.0 +15.0 29 +38 +38 очень
душно
1008.7 960.0
12 21.05 В 10 10 км 9/0
[Cs]
+41.5 +6.7 12 +39 +40 очень
жарко
1006.2 957.8
15 21.05 СВ 12 10 км 9/3 1200 м
[Cu med, cong Cs]
+42.1 +6.1 11 +39 +39 очень
жарко
1002.5 954.1
18 21.05 В 8 10 км 9/1 1200 м
[Cu hum Ac trans Cs]
+40.0 +7.7 14 +38 +38 очень
жарко
1003.5 955.0 +43.1
21 21.05 СВ 8 10 км 9/0
[Cs]
+37.0 +7.7 17 +35 +35 очень
жарко
1005.0 956.6
03 22.05 Ю 6 10 км 9/0
[Cs]
+31.2 +17.1 43 +35 +35 очень
душно
1005.6 957.1
06 22.05 Ю 4 10 км 9/0
[Cs]
+29.8 +19.7 55 +36 +37 очень
душно
1007.6 958.8 +29.3
09 22.05 З 6 10 км 9/0
[Cs]
+35.2 +20.8 43 +42 +47 опасность
перегрева
1007.6 959.0
12 22.05 В 6 10 км 9/0
[Cs]
+39.6 +12.8 20 +39 +46 очень
жарко
1005.7 957.2
15 22.05 В 6 10 км 9/0
[Cs]
+41.0 +5.2 11 +38 +41 очень
жарко
1003.5 955.1
18 22.05 В 4 10 км 9/0
[Cs]
+39.0 +6.5 14 +36 +36 очень
жарко
1004.0 955.3 +42.2
21 22.05 В 4 10 км 9/0
[Cs]
+35.0 +8.3 19 +33 +33 жарко 1005.3 956.5
03 23.05 СВ 6 10 км 9/0
[Cs]
+31.7 +3.2 16 +29 +29 жарко 1004.4 956.0
06 23.05 штиль 0 8000 м пыль 9/0
[Cs]
+29.6 +1.7 17 +27 +29 жарко 1006.2 957.4 +29.3
09 23.05 Ю 4 10 км 9/0
[Cs]
+36.0 +7.2 17 +34 +42 очень
жарко
1008.1 959.4
12 23.05 ЮВ 10 10 км 9/0
[Cs]
+40.5 +5.4 12 +38 +38 очень
жарко
1006.0 957.6
15 23.05 СВ 10 10 км 9/0
[Cs]
+41.5 +3.0 9 +38 +38 очень
жарко
1003.5 955.2
18 23.05 СВ 4 10 км 9/0
[Cs]
+39.6 +3.3 11 +36 +36 очень
жарко
1003.2 954.5 +42.2
21 23.05 С 6 10 км 9/0
[Cs]
+35.4 +4.6 15 +33 +33 жарко 1006.3 957.7
03 24.05 С 6 10 км 9/0
[Cs]
+30.7 +2.4 16 +28 +28 жарко 1005.8 957.3
06 24.05 СВ 6 10 км 9/0
[Cs]
+29.5 +5.3 22 +28 +28 жарко 1007.6 958.8 +29.5
09 24.05 Ю 6 15 км 6/0
[Ci sp]
+35.8 +8.3 19 +34 +39 очень
жарко
1007.9 959.2
12 24.05 СВ 8 15 км 9/0
[Cs]
+39.8 +8.9 16 +36 +39 очень
жарко
1006.1 957.7
15 24.05 С 6 15 км 9/0
[Cs]
+41.1 +8.2 14 +39 +42 очень
жарко
1003.2 954.8
18 24.05 С 6 15 км 9/0
[Cs]
+39.0 +7.5 15 +37 +37 очень
жарко
1003.8 955.1 +42.0
21 24.05 З 4 10 км 9/0
[Cs]
+33.6 +8.3 21 +32 +32 жарко 1006.1 957.3
03 25.05 Ю 12 10 км 9/0
[Cs]
+30.0 +19.6 54 +36 +36 очень
душно
1007.5 958.8
06 25.05 Ю 8 10 км 9/0
[Ac As Ci sp]
+29.3 +21.0 61 +37 +37 очень
душно
1009.2 960.2 +29.1
09 25.05 ЮЗ 10 10 км 9/0
[Ac As Ci sp]
+31.6 +19.6 49 +37 +38 очень
душно
1011.1 961.8
12 25.05 ЮВ 8 10 км 9/3 1200 м
[Cu med, cong Ac As Ci sp]
+33.6 +19.8 44 +39 +41 очень
душно
1011.2 961.1
15 25.05 СВ 4 10 км 9/0
[Ac As Ci sp]
+33.5 +16.4 36 +36 +38 очень
душно
1007.2 958.0
18 25.05 СВ 4 10 км 9/0
[Ac As Ci sp]
+33.2 +17.4 39 +37 +37 очень
душно
1007.5 958.2 +34.2
21 25.05 СЗ 4 10 км 9/0
[Ac As Ci sp]
+29.0 +20.1 59 +35 +35 очень
душно
1010.1 960.5
03 26.05 З 6 10 км 9/0
[Ac As Ci sp]
+27.3 +20.7 67 +34 +34 очень
душно
1009.6 960.0

 

Местоположение метеостанции Zinder (Нигер): широта 13.78 долгота 8.98 высота над уровнем моря 453 м.

В архиве по умолчанию представлена погода в Zinder за последнюю неделю. Архивные данные за месяц целиком и за предыдущие месяцы, начиная с января 2011 года, Вы можете получить, выбрав интересующий диапазон дат из раскрывающегося списка и нажав кнопку "Ввод!".

Внимание! Время в таблицах - всемирное. Для получения местного времени необходимо прибавить поправку, которая в Zinder равна 1 ч.

Смотрите также архив погоды в соседних городах и на ближайших метеорологических станциях:

Погода в Magaria (Нигер) (89 км)
Погода в Goure (Нигер) (144 км)
Погода в Cano (Нигерия) (199 км)
Погода в Maradi (Нигер) (208 км)
Погода в Maine-Soroa (Нигер) (330 км)
Погода в Agadez (Нигер) (371 км)
Погода в Birni-Nkonni (Нигер) (403 км)
Погода в Diffa (Нигер) (413 км)
Погода в Tahoua (Нигер) (421 км)
Погода в Nguigmi (Нигер) (450 км)

Пояснения к столбцам:

Ветер - указаны скорость ветра в м/с - средняя за 10 мин, порывы в срок и между сроками (в фигурных скобках) и направление, откуда дует ветер: С - северный, СВ - северо-восточный, В - восточный, ЮВ - юго-восточный, Ю - южный, ЮЗ - юго-западный, З - западный, СЗ - северо-западный.
Видимость - горизонтальная дальность видимости в метрах или километрах. При видимости от 1 до 10 км при отсутствии осадков обычно наблюдается дымка, при ухудшении видимости до 1 км и менее - туман. В сухую погоду видимость может ухудшаться дымом, пылью или мглою.
Явления - указаны атмосферные явления, наблюдавшиеся в срок или в последний час перед сроком; фигурными скобками обозначены явления, наблюдавшиеся между сроками (за 1-3 часа до срока); квадратными скобками обозначены град или гололедные отложения с указанием их диаметра в мм.
Облачность - указаны через наклонную черту общая и нижняя облачность в баллах и высота нижней границы облаков в метрах; квадратными скобками обозначены формы облаков: Ci - перистые, Cs - перисто-слоистые, Cc - перисто-кучевые, Ac - высококучевые, As - высокослоистые, Sc - слоисто-кучевые, Ns - слоисто-дождевые, Cu - кучевые, Cb - кучево-дождевые. Подробнее классификацию облаков см. в Атласе облаков (PDF).
T - Температура воздуха - температура, измеренная на высоте 2 м над землей.
Td - Температура точки росы - температура, при понижении до которой содержащийся в воздухе водяной пар достигнет насыщения.
f - Относительная влажность воздуха - влажноcть воздуха, измеренная на высоте 2 м над землей.
Te - Эффективная температура - температура, которую ощущает одетый по сезону человек в тени. Характеристика душности погоды. При расчете учитывается влияние влажности воздуха и скорости ветра на теплоощущения человека.
Tes - Эффективная температура на солнце - температура, которую ощущает человек, с поправкой на солнечный нагрев. Характеристика знойности погоды. Зависит от высоты солнца над горизонтом, облачности и скорости ветра. Ночью, в пасмурную погоду, а также при ветре 12 м/с и более поправка равна нулю.
P - Атмосферное давление - приведенное к уровню моря атмосферное давление.
Po - Атмосферное давление - измеренное на уровне метеостанции атмосферное давление.
Tmin - Минимальная температура - минимум температуры воздуха на высоте 2 м над землей.
Tmax - Максимальная температура - максимум температуры воздуха на высоте 2 м над землей.
R - Количество осадков - Количество выпавших осадков за период времени, мм. При наведении курсора мыши на число - период времени, за который выпало указанное количество осадков.
R24 - Количество осадков - Количество выпавших осадков за 24 часа, мм.
S - Снежный покров - Высота снежного покрова, см. При наведении курсора мыши на число - состояние снежного покрова и степень покрытия местности в баллах.